Gulkana, AK

5:59 AM AKST on December 18, 2017 (GMT -0900)
Gulkana

Weather History for PAGK - November, 2013

Change the Weather History Date:

Friday, November 1, 2013

  Actual Average Record
Temperature  
Mean Temperature 32 °F -  
Max Temperature 39 °F 22 °F 44 °F (1954)
Min Temperature 27 °F 8 °F -23 °F (1975)
Degree Days  
Heating Degree Days 33    
Moisture  
Dew Point 29 °F    
Average Humidity 79    
Maximum Humidity 92    
Minimum Humidity 60    
Precipitation  
Precipitation 0.00 in - - ()
Sea Level Pressure  
Sea Level Pressure 29.84 in    
Wind  
Wind Speed 6 mph (SSW)    
Max Wind Speed 15 mph    
Max Gust Speed 21 mph    
Visibility 10 miles    
Events Rain    
Averages and records for this station are not official NWS values.
T = Trace of Precipitation, MM = Missing Value Source: NWS Daily Summary

Daily Weather History Graph

Daily Weather History Graph

Search for Another Location

Airport or City:

Trip Planner

Search our weather history database for the weather conditions in past years. The results will help you decide how hot, cold, wet, or windy it might be!

Date:

Astronomy

Nov. 01, 2013 Rise Set
Actual Time 9:15 AM AKDT 5:34 PM AKDT
Civil Twilight 8:26 AM AKDT 6:23 PM AKDT
Nautical Twilight 7:33 AM AKDT 7:16 PM AKDT
Astronomical Twilight 6:41 AM AKDT 8:07 PM AKDT
Moon 6:48 AM AKDT (11/1) 4:55 PM AKDT (11/1)
Length of Visible Light 9h 57m
Length of Day
8h 18m
Waning Crescent, 4% of the Moon is Illuminated
Nov 1
Waning Crescent
Nov 3
New
Nov 9
First Quarter
Nov 17
Full
Nov 25
Last Quarter

Hourly Weather History & Observations

Time (AKDT) Temp. Windchill Dew Point Humidity Pressure Visibility Wind Dir Wind Speed Gust Speed Precip Events Conditions
12:53 AM 37.0 °F 30.4 °F 30.0 °F 76% 29.63 in 10.0 mi SSW 9.2 mph - N/A   Overcast
1:53 AM 37.0 °F 32.4 °F 30.9 °F 79% 29.65 in 10.0 mi SSW 5.8 mph - 0.00 in   Overcast
2:53 AM 37.0 °F 32.4 °F 30.9 °F 79% 29.68 in 10.0 mi SW 5.8 mph - N/A   Overcast
3:53 AM 37.0 °F 31.6 °F 30.9 °F 79% 29.71 in 10.0 mi SSW 6.9 mph - N/A   Overcast
4:11 AM 37.0 °F 31.6 °F 30.9 °F 79% 29.65 in 10.0 mi SSW 6.9 mph - N/A   Overcast
4:34 AM 37.0 °F 31.6 °F 30.9 °F 79% 29.66 in 10.0 mi SSW 6.9 mph - 0.00 in Rain Light Rain
4:53 AM 37.0 °F 33.3 °F 30.9 °F 79% 29.73 in 10.0 mi SSW 4.6 mph - 0.00 in Rain Light Rain
5:19 AM 37.0 °F 33.3 °F 32.0 °F 82% 29.67 in 10.0 mi SSW 4.6 mph - 0.00 in   Overcast
5:53 AM 37.0 °F 32.4 °F 30.9 °F 79% 29.75 in 10.0 mi SSW 5.8 mph - 0.00 in   Overcast
6:53 AM 37.0 °F 32.4 °F 30.9 °F 79% 29.78 in 10.0 mi SSW 5.8 mph - N/A   Overcast
7:53 AM 37.0 °F 32.4 °F 30.9 °F 79% 29.80 in 10.0 mi SSW 5.8 mph - N/A   Overcast
8:53 AM 36.0 °F 32.1 °F 30.0 °F 79% 29.81 in 10.0 mi SW 4.6 mph - N/A   Overcast
9:53 AM 35.1 °F 31.0 °F 30.0 °F 82% 29.84 in 10.0 mi SSW 4.6 mph - N/A   Overcast
10:53 AM 35.1 °F 32.2 °F 30.0 °F 82% 29.85 in 10.0 mi SSW 3.5 mph - N/A   Mostly Cloudy
11:53 AM 36.0 °F 33.3 °F 30.0 °F 79% 29.88 in 10.0 mi SSW 3.5 mph - N/A   Partly Cloudy
12:53 PM 37.0 °F 34.5 °F 30.0 °F 76% 29.90 in 10.0 mi SSW 3.5 mph - N/A   Clear
1:53 PM 39.9 °F 34.5 °F 30.0 °F 68% 29.91 in 10.0 mi SSE 8.1 mph - N/A   Clear
2:53 PM 39.0 °F 30.6 °F 30.0 °F 70% 29.93 in 10.0 mi SSE 15.0 mph 20.7 mph N/A   Clear
3:53 PM 39.0 °F 31.0 °F 30.0 °F 70% 29.94 in 10.0 mi SSE 13.8 mph - N/A   Overcast
4:53 PM 37.0 °F 29.8 °F 28.9 °F 73% 29.95 in 10.0 mi SSE 10.4 mph - N/A   Mostly Cloudy
5:53 PM 35.1 °F 29.3 °F 28.9 °F 78% 29.95 in 10.0 mi South 6.9 mph - N/A   Scattered Clouds
6:53 PM 34.0 °F 31.0 °F 28.0 °F 79% 29.96 in 10.0 mi SSW 3.5 mph - N/A   Overcast
7:53 PM 30.9 °F 27.5 °F 27.0 °F 85% 29.98 in 10.0 mi SSW 3.5 mph - N/A   Overcast
8:53 PM 30.0 °F - 27.0 °F 88% 30.00 in 10.0 mi Calm Calm - N/A   Overcast
9:53 PM 28.0 °F - 26.1 °F 92% 30.00 in 10.0 mi Calm Calm - N/A   Mostly Cloudy
10:53 PM 27.0 °F - 25.0 °F 92% 30.01 in 10.0 mi Calm Calm - N/A   Mostly Cloudy
11:53 PM 27.0 °F - 25.0 °F 92% 30.02 in 10.0 mi Calm Calm - N/A   Scattered Clouds